Regional Weather Roundup
Issued by NWS

Home | Current Version | Previous Version | Text Only | Print | Product List | Glossary Off
Versions: 1 2 3 4 5 6 7 8 9 10 11 12 13 14 15 16 17 18 19 20 21 22 23 24 25 26 27 28 29 30 31 32 33 34 35 36 37 38 39 40 41 42 43 44 45 46 47 48 49 50

000
ASUS45 KBOU 230607
RWRCO

WEATHER ROUNDUP FOR COLORADO
NATIONAL WEATHER SERVICE DENVER/BOULDER CO
1200 AM MDT SAT AUG 23 2014

NOTE: "FAIR" INDICATES FEW OR NO CLOUDS BELOW 12000 FEET WITH NO
SIGNIFICANT WEATHER AND/OR OBSTRUCTIONS TO VISIBILITY.

COZ001>005-013-030-031-230700-
...NORTHWEST COLORADO...

CITY           SKY/WX    TMP DP  RH WIND       PRES   REMARKS
CRAIG          MOCLDY    55  51  86 CALM      30.07S
HAYDEN         PTCLDY    54  46  76 E7        30.09S
MEEKER         MOCLDY    57  50  77 NE3       30.07F
MOUNT WERNER   NOT AVBL
STEAMBOAT SPGS MOCLDY    53  51  95 CALM      30.11F
WALDEN         CLOUDY    50  43  76 E13       30.18R
$$

COZ006>008-011-230700-
...WEST CENTRAL VALLEYS...

CITY           SKY/WX    TMP DP  RH WIND       PRES   REMARKS
GRAND JUNCTION CLOUDY    64  51  62 E15       29.99F
MONTROSE       CLOUDY    57  51  80 CALM      30.12R
EAGLE          CLOUDY    59  48  67 NE7       30.13S
RIFLE          PTCLDY    59  52  77 VRB3      30.05S
DELTA          RAIN      65  52  61 E8        30.08S
NUCLA          PTCLDY    55  46  71 E7        30.15R
$$

COZ017>023-064>068-230700-
...SOUTHWEST COLORADO...

CITY           SKY/WX    TMP DP  RH WIND       PRES   REMARKS
DURANGO        MOCLDY    52  51  97 NE3       30.21S
CORTEZ         MOCLDY    54  52  93 E7        30.15S
PAGOSA SPRINGS   N/A     52  49  90 CALM      30.27S
TELLURIDE      NOT AVBL
WOLF CREEK PAS NOT AVBL
$$

COZ009-010-012-014-032>034-037-058>063-230700-
...CENTRAL COLORADO...

CITY           SKY/WX    TMP DP  RH WIND       PRES   REMARKS
ASPEN          MOCLDY    52  46  80 SW5       30.18S
BUENA VISTA    CLOUDY    49  45  84 CALM      30.23S
COPPER MTN     LGT RAIN  45  37  76 S12       30.44S
BERTHOUD PASS  FOG       37  36  93 N7        30.46S THUNDER VSB<1/4
COTTONWOOD PAS CLOUDY    50  45  81 CALM      30.33S
GUNNISON       CLOUDY    52  46  82 E3        30.26S
KREMMLING      CLOUDY    54  46  76 E8        30.16F
LEADVILLE      CLOUDY    45  43  93 S3        30.31S
MONARCH PASS   FOG       39  37  93 SW17      30.55R VSB<1/4
SALIDA         CLOUDY    55  47  75 S6        30.27S
SUNLIGHT       MOCLDY    45  41  87 CALM      30.36S
WILKERSON PASS NOT AVBL
$$

COZ069>075-230700-
...SAN LUIS VALLEY/SANGRE DE CRISTO MOUNTAINS...

CITY           SKY/WX    TMP DP  RH WIND       PRES   REMARKS
ALAMOSA        MOCLDY    51  49  92 NE5       30.24R
LA VETA PASS   NOT AVBL
SAGUACHE       CLOUDY    52  50  93 CALM      30.27F
$$

COZ035-036-038>040-230700-
...NORTHERN COLORADO FRONT RANGE...

CITY           SKY/WX    TMP DP  RH WIND       PRES   REMARKS
DENVER INTL AP MOCLDY    60  57  89 S6        30.05F
DMNS CITY PARK   N/A     62  56  82 W2        30.05S
AURORA         CLOUDY    59  58  96 S6        30.08S
FRONT RANGE AP CLOUDY    63  59  88 SE3       30.06F
ERIE MUNI ARPT CLOUDY    63  58  85 CALM      30.05S
BOULDER MUN AP CLOUDY    61  59  94 NE3       30.06S
CENTENNIAL     MOCLDY    59  55  87 SE9       30.08S
BROOMFIELD     MOCLDY    61  57  88 CALM      30.08S
FORT COLLINS   CLOUDY    61  57  88 CALM      30.06S
LONGMONT       CLOUDY    65  59  81 CALM      30.06F
$$

COZ041-046-047-076>085-087-088-230700-
...PIKES PEAK/PALMER DIVIDE AND SOUTHERN FOOTHILLS...

CITY           SKY/WX    TMP DP  RH WIND       PRES   REMARKS
COLO. SPRINGS  PTCLDY    58  54  86 NE8       30.10S
A. F. ACADEMY  MOCLDY    55  53  94 N6        30.12R
ELLICOTT       CLEAR     57  56  96 E9        30.07F
FALCON         PTCLDY    55  54  97 N5        30.14F
FORT CARSON    PTCLDY    59  55  88 NW3       30.08R
LIMON          PTCLDY    58  57  97 CALM      30.04F
MONUMENT HILL  CLOUDY    54  54 100 SE6       30.12F
TRINIDAD       PTCLDY    59  56  89 N5        30.08F
$$

COZ042>045-048>051-090-091-230700-
...NORTHEAST COLORADO...

CITY           SKY/WX    TMP DP  RH WIND       PRES   REMARKS
GREELEY ARPT   CLOUDY    63  54  72 CALM      30.04F
AKRON          CLOUDY    61  59  93 NE6       29.99F
BURLINGTON     MOCLDY    63  61  93 SE8       29.95S
WRAY             N/A    N/A N/A N/A N6        29.93F
STERLING       CLOUDY    63  63 100 CALM      29.98F
HOLYOKE        NOT AVBL
FORT MORGAN    CLOUDY    60  58  92 E3        30.02F
$$

COZ086-089-092>099-230700-
...SOUTHEAST COLORADO...

CITY           SKY/WX    TMP DP  RH WIND       PRES   REMARKS
PUEBLO         CLEAR     62  53  72 E3        30.02R
LA JUNTA       PTCLDY    64  62  93 CALM      29.99R
LAMAR          MOCLDY    66  62  87 CALM      29.95S
SPRINGFIELD      N/A     63  61  93 SW5       30.02R
$$


USA.gov is the U.S. government's official web portal to all federal, state and local government web resources and services.